Visibility
12.8 15.0 12.7 2.7 2.8 15.0 3.5 2.4 0.7 5.7 2.8 15.0 15.0 15.0 15.0 15.0 15.0 15.0 15.0 15.0 15.0 7.6 15.0 8.6 15.0 15.0 15.0 15.0 15.0 15.0 15.0 15.0 15.0 15.0 15.0 15.0 15.0 15.0 15.0 15.0 15.0 15.0 15.0 15.0
14.8 15.0 8.6 2.5 5.7 15.0 15.0 3.4 8.2 10.7 15.0 15.0 15.0 15.0 15.0 15.0 15.0 15.0 15.0 15.0 15.0 12.1 15.0 15.0 15.0 15.0 15.0 15.0 4.4 8.1 15.0 15.0 15.0 15.0 15.0 15.0 15.0 15.0 15.0 15.0 15.0 15.0 15.0 15.0
15.0 15.0 15.0 2.1 15.0 15.0 15.0 15.0 15.0 15.0 15.0 15.0 15.0 15.0 15.0 15.0 15.0 15.0 15.0 15.0 15.0 15.0 15.0 15.0 15.0 15.0 15.0 10.0 3.9 15.0 15.0 15.0 15.0 15.0 15.0 13.8 15.0 15.0 15.0 12.7 15.0 15.0 15.0 15.0
12.5 14.1 0.1 15.0 15.0 15.0 15.0 15.0 15.0 15.0 15.0 15.0 15.0 15.0 15.0 15.0 15.0 15.0 15.0 15.0 15.0 15.0 15.0 15.0 15.0 15.0 15.0 10.5 15.0 15.0 15.0 15.0 15.0 15.0 8.4 15.0 15.0 15.0 15.0 11.2 5.8 4.1 5.3 9.6
15.0 15.0 15.0 15.0 15.0 15.0 15.0 15.0 15.0 15.0 15.0 15.0 15.0 15.0 15.0 15.0 15.0 0.3 15.0 15.0 15.0 15.0 15.0 15.0 15.0 15.0 0.5 15.0 15.0 15.0 15.0 14.2 15.0 15.0 8.1 12.0 15.0 6.3 4.1 8.7 5.6 4.1 4.1 10.6
11.7 1.7 1.8 15.0 15.0 15.0 15.0 15.0 15.0 15.0 15.0 15.0 15.0 15.0 15.0 15.0 15.0 15.0 15.0 15.0 15.0 15.0 15.0 15.0 15.0 1.3 15.0 1.2 15.0 15.0 15.0 15.0 15.0 15.0 15.0 2.2 15.0 15.0 5.5 4.1 4.1 4.1 15.0 9.7
15.0 15.0 15.0 15.0 15.0 15.0 15.0 15.0 15.0 15.0 13.2 15.0 15.0 15.0 3.8 3.1 1.0 15.0 13.5 15.0 15.0 15.0 15.0 15.0 15.0 15.0 15.0 15.0 15.0 15.0 15.0 15.0 15.0 15.0 15.0 12.9 0.7 9.3 7.7 4.1 7.1 7.3 13.9 15.0
10.2 15.0 15.0 15.0 15.0 14.5 15.0 15.0 15.0 15.0 15.0 15.0 0.2 0.1 0.1 0.1 0.2 14.3 15.0 15.0 15.0 15.0 15.0 15.0 15.0 15.0 0.9 15.0 15.0 15.0 15.0 15.0 15.0 15.0 15.0 9.0 5.3 0.2 1.0 4.1 14.1 5.5 15.0 15.0
15.0 15.0 15.0 15.0 15.0 15.0 15.0 15.0 15.0 15.0 15.0 15.0 0.2 0.1 0.1 0.1 0.1 6.5 14.9 15.0 15.0 15.0 15.0 15.0 15.0 13.6 13.8 15.0 15.0 15.0 15.0 10.9 3.0 11.3 15.0 9.1 11.2 0.8 2.3 15.0 15.0 8.7 4.9 6.0
15.0 15.0 15.0 15.0 15.0 15.0 15.0 15.0 15.0 15.0 15.0 3.0 0.1 0.1 0.1 0.1 0.1 1.9 8.7 15.0 15.0 15.0 15.0 5.5 15.0 15.0 15.0 15.0 15.0 15.0 5.8 3.0 4.4 10.3 8.2 1.1 1.3 6.5 13.8 13.2 15.0 15.0 13.6 15.0
15.0 15.0 15.0 15.0 15.0 15.0 15.0 15.0 15.0 15.0 15.0 15.0 13.0 0.2 1.7 0.2 2.4 12.7 12.7 14.5 15.0 15.0 15.0 15.0 15.0 15.0 15.0 15.0 15.0 15.0 14.0 15.0 15.0 15.0 15.0 15.0 15.0 15.0 15.0 6.3 14.8 15.0 15.0 15.0
15.0 15.0 15.0 15.0 15.0 15.0 15.0 15.0 15.0 12.7 0.1 15.0 15.0 15.0 15.0 15.0 14.7 13.2 3.5 3.9 2.2 2.9 6.4 1.5 11.9 15.0 15.0 15.0 15.0 15.0 15.0 15.0 15.0 15.0 15.0 15.0 15.0 15.0 15.0 15.0 15.0 15.0 15.0 15.0
15.0 15.0 15.0 15.0 15.0 15.0 15.0 15.0 15.0 15.0 15.0 15.0 15.0 15.0 15.0 14.8 10.8 13.4 15.0 14.9 2.4 7.6 14.7 2.2 3.8 14.7 15.0 15.0 15.0 14.6 15.0 7.9 15.0 15.0 15.0 15.0 15.0 15.0 2.4 15.0 14.9 15.0 15.0 15.0
15.0 15.0 15.0 15.0 15.0 15.0 15.0 15.0 15.0 15.0 15.0 15.0 15.0 15.0 15.0 12.1 5.2 7.0 14.4 12.9 15.0 15.0 0.7 6.0 15.0 15.0 15.0 15.0 15.0 15.0 15.0 15.0 15.0 15.0 15.0 15.0 11.4 15.0 15.0 15.0 15.0 5.6 13.1 15.0
15.0 15.0 15.0 15.0 15.0 15.0 15.0 15.0 15.0 15.0 15.0 15.0 15.0 15.0 15.0 10.3 6.7 7.5 15.0 15.0 15.0 15.0 15.0 15.0 15.0 15.0 15.0 15.0 15.0 15.0 15.0 15.0 15.0 15.0 15.0 15.0 15.0 15.0 15.0 15.0 15.0 15.0 15.0 12.8
15.0 15.0 15.0 15.0 15.0 15.0 15.0 15.0 15.0 15.0 15.0 15.0 15.0 15.0 15.0 15.0 15.0 15.0 4.4 0.8 0.2 0.2 0.9 1.2 13.8 15.0 15.0 15.0 15.0 15.0 15.0 15.0 15.0 15.0 12.6 7.9 11.7 13.6 11.1 15.0 15.0 15.0 15.0 14.3
15.0 15.0 15.0 15.0 15.0 15.0 15.0 15.0 15.0 15.0 15.0 15.0 15.0 15.0 8.4 5.4 0.6 0.2 0.3 0.3 1.2 1.2 7.9 15.0 15.0 15.0 15.0 15.0 15.0 15.0 15.0 15.0 15.0 15.0 15.0 7.7 1.6 2.9 7.3 15.0 15.0 15.0 15.0 14.8
15.0 15.0 15.0 15.0 15.0 12.6 15.0 15.0 15.0 15.0 15.0 15.0 15.0 13.6 1.1 0.4 1.4 0.5 1.6 0.2 0.1 0.2 13.1 15.0 15.0 15.0 15.0 15.0 15.0 15.0 15.0 15.0 15.0 15.0 15.0 15.0 15.0 15.0 15.0 15.0 15.0 15.0 15.0 9.6
15.0 15.0 15.0 15.0 15.0 15.0 15.0 15.0 15.0 15.0 15.0 15.0 11.5 4.4 10.0 11.0 15.0 5.8 2.0 0.5 0.2 0.8 4.4 3.2 0.3 0.4 0.2 0.9 8.4 15.0 15.0 15.0 15.0 15.0 15.0 15.0 15.0 15.0 15.0 15.0 15.0 15.0 15.0 13.7
15.0 15.0 15.0 15.0 15.0 15.0 15.0 15.0 15.0 15.0 8.5 15.0 7.2 5.7 4.6 4.6 5.2 3.4 5.4 12.0 13.3 14.0 11.9 2.8 12.9 15.0 15.0 15.0 15.0 15.0 15.0 15.0 15.0 15.0 15.0 15.0 15.0 15.0 15.0 15.0 15.0 15.0 15.0 15.0
15.0 15.0 15.0 15.0 15.0 15.0 15.0 15.0 15.0 5.3 13.0 15.0 15.0 15.0 7.7 4.1 4.7 7.1 2.3 1.5 5.2 15.0 15.0 15.0 15.0 15.0 15.0 15.0 15.0 15.0 15.0 15.0 15.0 15.0 15.0 14.6 2.9 15.0 15.0 15.0 15.0 15.0 15.0 15.0
15.0 15.0 15.0 15.0 15.0 15.0 15.0 15.0 14.7 13.1 14.4 5.1 8.5 5.3 4.9 1.8 2.4 2.8 11.5 15.0 8.7 15.0 15.0 15.0 15.0 15.0 15.0 15.0 15.0 15.0 15.0 15.0 15.0 15.0 11.4 0.5 15.0 15.0 15.0 15.0 15.0 15.0 15.0 15.0
15.0 15.0 15.0 15.0 15.0 9.1 13.4 15.0 15.0 15.0 8.8 5.2 6.9 6.7 12.9 11.5 10.9 2.5 1.2 15.0 14.0 8.0 14.2 10.1 7.7 15.0 15.0 15.0 15.0 15.0 15.0 15.0 15.0 13.4 0.2 4.4 15.0 15.0 15.0 15.0 15.0 15.0 15.0 15.0
15.0 15.0 15.0 15.0 15.0 13.1 1.2 2.6 15.0 7.7 4.7 6.2 9.2 15.0 14.6 0.9 0.5 5.7 15.0 14.4 15.0 3.3 3.4 2.4 0.9 15.0 15.0 15.0 15.0 15.0 15.0 15.0 8.5 0.2 0.5 15.0 15.0 15.0 15.0 15.0 15.0 15.0 15.0 15.0
15.0 15.0 14.8 15.0 14.5 6.4 14.0 6.1 4.9 2.7 1.3 0.5 0.5 1.0 5.6 15.0 13.1 6.2 5.2 6.1 7.0 7.6 9.2 15.0 15.0 15.0 15.0 15.0 15.0 15.0 15.0 15.0 2.7 3.5 15.0 15.0 15.0 15.0 15.0 15.0 15.0 15.0 15.0 15.0
15.0 15.0 15.0 15.0 15.0 15.0 13.5 5.3 9.6 2.9 3.6 1.1 0.3 0.4 1.0 3.6 4.9 3.6 4.5 4.7 5.2 4.5 8.4 15.0 15.0 14.2 15.0 15.0 15.0 15.0 15.0 7.3 7.2 15.0 15.0 15.0 15.0 15.0 15.0 15.0 15.0 15.0 15.0 15.0
15.0 15.0 9.0 5.7 12.7 15.0 14.5 15.0 6.8 1.4 7.5 7.7 4.8 2.0 0.9 0.7 1.9 3.9 1.4 2.4 3.3 3.8 4.1 11.1 14.6 15.0 15.0 5.7 7.4 9.6 11.3 11.9 15.0 15.0 15.0 15.0 15.0 15.0 15.0 15.0 15.0 15.0 15.0 15.0